Index of /20260412/WXO-DD/model_gdps/15km/12/013
Name Last modified Size Description
Parent Directory -
20260412T12Z_MSC_GDPS_AirTemp_AGL-120m_LatLon0.15_PT013H.grib2 2026-04-12 16:03 905K
20260412T12Z_MSC_GDPS_AirTemp_AGL-2m_LatLon0.15_PT013H.grib2 2026-04-12 16:03 1.2M
20260412T12Z_MSC_GDPS_AirTemp_AGL-40m_LatLon0.15_PT013H.grib2 2026-04-12 16:03 927K
20260412T12Z_MSC_GDPS_AirTemp_AGL-80m_LatLon0.15_PT013H.grib2 2026-04-12 16:03 915K
20260412T12Z_MSC_GDPS_Albedo_Sfc_LatLon0.15_PT013H.grib2 2026-04-12 16:03 249K
20260412T12Z_MSC_GDPS_ConvectivePrecip-Accum_Sfc_LatLon0.15_PT013H.grib2 2026-04-12 16:03 1.9M
20260412T12Z_MSC_GDPS_DewPointDepression_AGL-2m_LatLon0.15_PT013H.grib2 2026-04-12 16:03 744K
20260412T12Z_MSC_GDPS_DewPoint_AGL-2m_LatLon0.15_PT013H.grib2 2026-04-12 16:03 604K
20260412T12Z_MSC_GDPS_DownwardLongwaveRadiationFlux-Accum_Sfc_LatLon0.15_PT013H.grib2 2026-04-12 16:03 1.0M
20260412T12Z_MSC_GDPS_DownwardShortwaveRadiationFlux-Accum_Sfc_LatLon0.15_PT013H.grib2 2026-04-12 16:03 950K
20260412T12Z_MSC_GDPS_FreezingRain-Accum1h_Sfc_LatLon0.15_PT013H.grib2 2026-04-12 16:03 24K
20260412T12Z_MSC_GDPS_FreezingRain-Accum_Sfc_LatLon0.15_PT013H.grib2 2026-04-12 16:03 74K
20260412T12Z_MSC_GDPS_IcePellets-Accum1h_Sfc_LatLon0.15_PT013H.grib2 2026-04-12 16:03 8.2K
20260412T12Z_MSC_GDPS_IcePellets-Accum_Sfc_LatLon0.15_PT013H.grib2 2026-04-12 16:03 19K
20260412T12Z_MSC_GDPS_LatentHeatNetFlux_Sfc_LatLon0.15_PT013H.grib2 2026-04-12 16:03 643K
20260412T12Z_MSC_GDPS_NetLongwaveRadiationFlux-Accum_Sfc_LatLon0.15_PT013H.grib2 2026-04-12 16:03 1.0M
20260412T12Z_MSC_GDPS_NetShortwaveRadiationFlux-Accum_Sfc_LatLon0.15_PT013H.grib2 2026-04-12 16:03 908K
20260412T12Z_MSC_GDPS_O3MixingRatio_LatLon0.15_PT013H.grib2 2026-04-12 17:04 2.1M
20260412T12Z_MSC_GDPS_O3_EAtm_LatLon0.15_PT013H.grib2 2026-04-12 17:04 2.1M
20260412T12Z_MSC_GDPS_PlanetaryBoundaryLayerHeight_Sfc_LatLon0.15_PT013H.grib2 2026-04-12 16:03 2.4M
20260412T12Z_MSC_GDPS_Precip-Accum1h_Sfc_LatLon0.15_PT013H.grib2 2026-04-12 16:03 3.1M
20260412T12Z_MSC_GDPS_Precip-Accum_Sfc_LatLon0.15_PT013H.grib2 2026-04-12 16:03 4.2M
20260412T12Z_MSC_GDPS_PrecipRate_Sfc_LatLon0.15_PT013H.grib2 2026-04-12 16:03 2.8M
20260412T12Z_MSC_GDPS_Pressure_MSL_LatLon0.15_PT013H.grib2 2026-04-12 16:03 816K
20260412T12Z_MSC_GDPS_Pressure_Sfc_LatLon0.15_PT013H.grib2 2026-04-12 16:03 1.1M
20260412T12Z_MSC_GDPS_RadiativeTemp_Sfc_LatLon0.15_PT013H.grib2 2026-04-12 16:03 652K
20260412T12Z_MSC_GDPS_Rain-Accum1h_Sfc_LatLon0.15_PT013H.grib2 2026-04-12 16:03 1.4M
20260412T12Z_MSC_GDPS_Rain-Accum_Sfc_LatLon0.15_PT013H.grib2 2026-04-12 16:03 2.9M
20260412T12Z_MSC_GDPS_RelativeHumidity_AGL-2m_LatLon0.15_PT013H.grib2 2026-04-12 16:03 1.1M
20260412T12Z_MSC_GDPS_Runoff-Accum_Sfc_LatLon0.15_PT013H.grib2 2026-04-12 16:03 100K
20260412T12Z_MSC_GDPS_SensibleHeatNetFlux_Sfc_LatLon0.15_PT013H.grib2 2026-04-12 16:03 596K
20260412T12Z_MSC_GDPS_Snow-Accum1h_Sfc_LatLon0.15_PT013H.grib2 2026-04-12 16:03 1.0M
20260412T12Z_MSC_GDPS_Snow-Accum_Sfc_LatLon0.15_PT013H.grib2 2026-04-12 16:03 1.6M
20260412T12Z_MSC_GDPS_SnowDepth_Sfc_LatLon0.15_PT013H.grib2 2026-04-12 16:03 1.8M
20260412T12Z_MSC_GDPS_SoilTemp_DBS-0to10cm_LatLon0.15_PT013H.grib2 2026-04-12 16:03 494K
20260412T12Z_MSC_GDPS_SoilTemp_Sfc_LatLon0.15_PT013H.grib2 2026-04-12 16:03 573K
20260412T12Z_MSC_GDPS_SoilVolumetricWaterContent_DBS-0to10cm_LatLon0.15_PT013H.grib2 2026-04-12 16:03 551K
20260412T12Z_MSC_GDPS_SoilVolumetricWaterContent_DBS-0to1cm_LatLon0.15_PT013H.grib2 2026-04-12 16:03 651K
20260412T12Z_MSC_GDPS_SpecificHumidity_AGL-120m_LatLon0.15_PT013H.grib2 2026-04-12 16:03 1.1M
20260412T12Z_MSC_GDPS_SpecificHumidity_AGL-2m_LatLon0.15_PT013H.grib2 2026-04-12 16:03 1.2M
20260412T12Z_MSC_GDPS_SpecificHumidity_AGL-40m_LatLon0.15_PT013H.grib2 2026-04-12 16:03 1.1M
20260412T12Z_MSC_GDPS_SpecificHumidity_AGL-80m_LatLon0.15_PT013H.grib2 2026-04-12 16:03 1.1M
20260412T12Z_MSC_GDPS_SpecificHumidity_Sfc_LatLon0.15_PT013H.grib2 2026-04-12 16:03 612K
20260412T12Z_MSC_GDPS_TotalCloudCover_Sfc_LatLon0.15_PT013H.grib2 2026-04-12 16:03 819K
20260412T12Z_MSC_GDPS_UVIndex-ClearSky_Sfc_LatLon0.15_PT013H.grib2 2026-04-12 17:04 1.0M
20260412T12Z_MSC_GDPS_UVIndex_Sfc_LatLon0.15_PT013H.grib2 2026-04-12 17:04 1.4M
20260412T12Z_MSC_GDPS_UpwardLongwaveRadiationFlux_NTAtm_LatLon0.15_PT013H.grib2 2026-04-12 16:03 1.0M
20260412T12Z_MSC_GDPS_WindDir_AGL-10m_LatLon0.15_PT013H.grib2 2026-04-12 16:03 1.3M
20260412T12Z_MSC_GDPS_WindDir_AGL-120m_LatLon0.15_PT013H.grib2 2026-04-12 16:03 1.3M
20260412T12Z_MSC_GDPS_WindDir_AGL-40m_LatLon0.15_PT013H.grib2 2026-04-12 16:03 1.4M
20260412T12Z_MSC_GDPS_WindDir_AGL-80m_LatLon0.15_PT013H.grib2 2026-04-12 16:03 1.4M
20260412T12Z_MSC_GDPS_WindDir_IsbL-0700_LatLon0.15_PT013H.grib2 2026-04-12 16:03 1.6M
20260412T12Z_MSC_GDPS_WindGust-Max_AGL-10m_LatLon0.15_PT013H.grib2 2026-04-12 16:03 2.2M
20260412T12Z_MSC_GDPS_WindGust-Min_AGL-10m_LatLon0.15_PT013H.grib2 2026-04-12 16:03 2.1M
20260412T12Z_MSC_GDPS_WindGust_AGL-10m_LatLon0.15_PT013H.grib2 2026-04-12 16:03 2.1M
20260412T12Z_MSC_GDPS_WindSpeed_AGL-10m_LatLon0.15_PT013H.grib2 2026-04-12 16:03 1.1M
20260412T12Z_MSC_GDPS_WindSpeed_AGL-120m_LatLon0.15_PT013H.grib2 2026-04-12 16:03 1.2M
20260412T12Z_MSC_GDPS_WindSpeed_AGL-40m_LatLon0.15_PT013H.grib2 2026-04-12 16:03 1.2M
20260412T12Z_MSC_GDPS_WindSpeed_AGL-80m_LatLon0.15_PT013H.grib2 2026-04-12 16:03 1.2M
20260412T12Z_MSC_GDPS_WindSpeed_IsbL-0700_LatLon0.15_PT013H.grib2 2026-04-12 16:03 1.2M
20260412T12Z_MSC_GDPS_WindU_AGL-10m_LatLon0.15_PT013H.grib2 2026-04-12 16:03 1.3M
20260412T12Z_MSC_GDPS_WindU_AGL-120m_LatLon0.15_PT013H.grib2 2026-04-12 16:03 1.0M
20260412T12Z_MSC_GDPS_WindU_AGL-40m_LatLon0.15_PT013H.grib2 2026-04-12 16:03 964K
20260412T12Z_MSC_GDPS_WindU_AGL-80m_LatLon0.15_PT013H.grib2 2026-04-12 16:03 971K
20260412T12Z_MSC_GDPS_WindU_IsbL-0700_LatLon0.15_PT013H.grib2 2026-04-12 16:03 1.2M
20260412T12Z_MSC_GDPS_WindV_AGL-10m_LatLon0.15_PT013H.grib2 2026-04-12 16:03 1.3M
20260412T12Z_MSC_GDPS_WindV_AGL-120m_LatLon0.15_PT013H.grib2 2026-04-12 16:03 1.0M
20260412T12Z_MSC_GDPS_WindV_AGL-40m_LatLon0.15_PT013H.grib2 2026-04-12 16:03 963K
20260412T12Z_MSC_GDPS_WindV_AGL-80m_LatLon0.15_PT013H.grib2 2026-04-12 16:03 1.0M
20260412T12Z_MSC_GDPS_WindV_IsbL-0700_LatLon0.15_PT013H.grib2 2026-04-12 16:03 1.2M